Huvudsida
METAR-TAF:

METAR-TAF

Flygplatser :

Skövde, Sverige

latitud: 58-27N, longitud: 013-58E, höjd: 98 m

Aktuellt väderrapport

Denna rapport gjordes för 37 minuter sedan, klockan 17:50 UTC
Vind 5 kt från ost, varierande mellan ost och syd
Temperatur 13°C
Fuktighet 33%
Tryck 1012 hPa
Sikt 10 km eller mer

METAR: ESGR 221750Z AUTO 10005KT 090V170 9999 NCD 13/M03 Q1012

Tid: 20:27 (18:27 UTC)


TAF: saknas

Aktuella väderrapporter och prognoser från 4000 flygplatser (METAR- och TAF-rapporter).

De tillgängliga stationerna syns som gula och röda prickar på kartan.

För musen över prickarna för att se namnen på stationerna.

Klicka sedan för att få väderrapporter och prognoser.

För att ändra kartan: Klicka på de gröna knapparna med ett svart kors på för att zooma in; den gröna knappen med ett streck på för att zooma ut; eller på de gröna pilarna för angränsande kartor.


METAR-TAF: